Vertical_Velocity
0 2 5 7 4 3 2 2 3 4 6 12 17 12 4 1 2 3 2 2 1 2 3 5 5 4 3 3 2 0 -1 -2 -2 -1 -0 -0 2 2 2 2 1 0 -1 -1 -0 1 1 1 0 -1 -2 -2 -1 -1 0 1 0 -0 -0 0 0 0 0 0 0 1 1 1 1
0 3 6 6 5 4 3 2 3 5 8 14 18 13 6 1 0 0 0 -0 1 2 4 4 5 4 3 2 0 -1 -1 -1 -1 -1 -1 -1 2 3 3 2 1 -0 -1 -0 0 1 1 1 -0 -1 -2 -2 -1 0 0 0 0 0 0 1 1 0 0 1 1 1 1 1 2
2 5 6 5 4 2 2 3 6 9 12 16 16 13 7 2 2 1 1 -0 2 4 5 5 5 4 2 0 -1 -1 -1 -0 0 -0 -1 -1 3 5 4 2 1 0 0 0 1 1 1 -0 -1 -1 -1 -1 0 1 0 -0 0 1 1 1 1 1 1 1 2 2 2 1 1
4 4 4 3 2 0 1 7 11 15 16 12 9 7 5 0 2 3 2 2 5 6 6 6 5 3 2 0 -1 -1 -0 0 1 -1 -2 -0 4 6 6 3 2 1 1 0 1 0 -0 -1 -2 -2 -1 0 1 1 0 -0 0 1 2 2 1 1 2 2 2 2 1 1 1
4 4 3 2 2 2 4 9 12 15 14 5 3 1 0 1 2 3 4 5 6 6 6 6 4 3 1 1 -0 -0 -0 -0 -1 -1 -1 2 6 9 9 5 3 2 1 0 0 -0 -1 -2 -2 -1 -0 1 1 -0 -0 0 2 2 3 2 2 2 2 2 1 1 0 0 0
4 4 3 2 2 5 8 12 13 14 12 3 -1 -1 0 2 2 2 3 4 4 5 5 5 4 3 3 2 1 -0 -0 -1 -2 -1 2 4 8 10 9 5 2 1 1 0 -0 -1 -2 -3 -2 -1 0 1 0 -0 0 2 3 3 3 2 2 2 2 1 0 -0 -0 -0 0
3 2 2 2 5 10 14 13 13 13 11 3 3 2 2 0 1 2 2 3 4 4 4 3 3 4 4 2 0 -0 -1 -2 -2 1 4 5 8 8 6 2 1 0 -0 -0 -1 -2 -2 -2 -1 0 1 1 1 1 2 3 3 3 2 2 2 1 1 -0 -1 -0 -0 0 1
3 1 2 5 13 17 17 13 11 9 5 1 2 1 1 1 1 3 4 6 5 4 3 2 3 4 5 3 0 -1 -1 -1 1 3 5 6 7 5 1 -1 -1 -1 -1 -0 -1 -2 -2 -2 -0 1 2 2 2 2 3 3 2 2 1 1 1 0 -0 -1 -0 0 1 1 1
2 1 5 16 19 16 13 13 10 5 -0 -3 -1 1 2 2 3 4 5 5 5 5 4 3 4 6 7 5 2 1 1 2 4 4 4 4 4 1 -1 -3 -2 -1 -0 0 -1 -2 -3 -1 1 2 2 3 3 3 2 2 1 1 0 0 -0 -0 -0 0 1 1 1 1 1
-2 2 11 25 18 11 7 10 10 5 -1 -2 0 2 3 4 5 5 5 4 5 6 6 4 5 5 5 4 3 3 4 6 7 6 4 3 4 1 -2 -3 -2 -1 0 1 -1 -3 -2 0 2 2 3 2 2 1 1 1 0 0 0 0 0 0 1 1 1 1 1 1 1
-4 5 16 23 16 9 4 4 12 9 2 -1 1 3 4 5 5 5 5 6 7 7 6 5 4 3 2 2 2 4 6 8 7 5 4 6 6 2 -1 -1 -1 1 2 1 -2 -3 -1 2 2 2 2 1 0 0 0 -0 -0 -0 0 0 1 1 1 2 1 1 1 0 -0
-1 9 18 17 15 8 1 -2 11 10 3 -1 2 3 4 4 3 4 5 7 7 6 4 4 2 0 1 3 3 6 9 8 5 2 3 11 6 2 0 -0 1 2 2 -0 -2 -1 1 2 2 2 1 -0 -0 -0 -0 0 0 0 0 1 1 1 2 1 1 0 -0 -0 -0
4 12 16 15 16 9 1 -3 4 4 2 0 2 3 3 3 3 4 5 7 7 5 2 2 -3 -5 -3 5 7 8 8 6 1 -0 4 12 5 2 2 1 2 3 1 -2 -1 0 2 2 2 1 -0 -1 -0 0 0 0 0 1 1 1 1 2 1 1 0 -0 -0 -1 -1
6 12 16 17 19 12 3 -0 -1 -0 1 2 3 3 3 3 4 5 6 8 7 4 0 -1 -6 -7 -4 7 10 9 6 2 -3 -0 5 9 5 3 2 1 2 1 -1 -2 0 2 2 1 0 -0 -1 -1 -0 0 0 0 1 1 1 1 1 1 1 0 -0 -0 -1 -1 -1
7 13 18 21 18 11 4 1 -0 0 1 2 3 3 3 3 4 6 8 8 6 3 0 -1 -4 -3 1 9 10 8 4 -3 -3 1 6 6 6 3 -0 -2 -1 -2 -2 -0 1 1 1 -0 -1 -1 -1 -0 0 0 0 0 1 1 1 1 1 1 0 -0 -0 -0 -1 -1 -1
9 15 20 24 13 7 4 0 -1 -0 2 3 3 3 2 2 4 6 8 7 5 4 4 4 3 4 6 9 8 5 1 -4 -0 3 6 9 6 1 -4 -5 -5 -3 -1 2 1 0 -1 -1 -1 -1 -0 0 0 -0 0 0 1 1 1 1 1 0 -0 -0 -0 -0 -1 -1 -2
12 17 21 23 11 6 4 0 -2 -1 1 2 2 1 1 3 5 6 7 7 5 6 8 10 10 9 8 7 7 4 0 -2 2 6 9 11 4 -2 -6 -5 -4 -2 0 1 -0 -1 -1 -1 -1 -0 -0 0 -0 -0 0 1 1 1 1 1 0 -0 -0 -0 -0 -1 -1 -2 -2
16 21 23 20 12 8 5 -1 -2 -0 1 0 0 1 3 4 5 6 7 6 7 8 10 11 11 10 8 6 6 4 1 1 6 11 13 10 1 -4 -5 -3 -2 -1 -1 -1 -1 -1 -0 0 -0 -0 -0 -0 -0 0 1 1 1 1 1 0 0 -0 -0 -0 -1 -1 -2 -2 -2
18 24 26 18 14 9 3 -2 -1 -1 -1 -1 1 3 5 6 6 5 5 6 9 10 10 9 9 8 7 5 4 2 2 7 12 15 13 6 -1 -4 -4 -1 -2 -3 -3 -3 -1 0 1 1 0 0 0 -0 0 1 1 2 1 1 1 0 0 -0 -0 -1 -2 -2 -2 -2 -1
17 23 26 18 13 6 -0 -2 -2 -2 -1 1 3 4 5 6 5 4 4 5 9 9 7 5 4 3 3 2 0 1 5 14 19 17 10 2 -1 -2 -2 -2 -4 -4 -3 -1 0 1 1 1 1 1 0 1 1 2 2 2 1 1 1 0 0 -0 -1 -2 -2 -2 -2 -1 -1
15 18 19 15 8 3 -1 -1 -2 -0 2 5 6 6 6 5 5 5 5 8 8 5 1 -1 -1 -1 -1 -2 -2 3 11 21 20 13 5 1 0 -0 -1 -4 -4 -3 -1 1 2 1 1 1 1 0 1 1 1 2 2 2 1 1 1 0 -0 -1 -2 -2 -2 -2 -1 -1 -1
11 12 12 9 5 2 0 -1 1 4 6 7 8 8 7 6 6 7 8 9 6 1 -2 -3 -2 -2 -1 -1 2 10 18 22 14 6 1 1 -0 -2 -4 -4 -3 -0 2 3 3 2 1 1 0 -0 0 1 1 2 2 2 2 1 1 -0 -1 -2 -2 -3 -2 -1 -1 -1 -1
9 9 9 7 4 2 2 3 5 6 6 7 8 8 8 7 7 7 7 6 2 -1 -4 -6 -2 2 6 9 14 19 21 16 5 -0 -0 1 -3 -6 -7 -6 -3 0 3 4 4 2 1 -0 -1 -1 0 1 2 2 2 2 2 1 0 -1 -2 -2 -2 -2 -1 -1 -1 -0 -1
12 11 10 7 5 5 5 5 6 6 6 7 8 8 7 6 5 4 3 2 -1 -5 -8 -6 2 9 15 18 20 20 16 6 -1 -2 -0 0 -5 -9 -10 -10 -5 0 4 4 2 1 -1 -2 -1 -0 1 2 2 2 2 2 1 0 -1 -2 -2 -2 -2 -1 -1 -0 -0 -0 -1
14 12 10 7 6 6 6 7 6 6 6 6 7 6 5 2 1 1 0 -1 -4 -6 -4 4 10 14 16 14 12 9 5 -1 -3 -2 -2 -4 -9 -12 -13 -10 -3 1 2 1 -1 -3 -4 -3 -1 1 3 3 2 2 1 1 -0 -1 -2 -2 -2 -1 -1 -0 -0 -0 -1 -1 -1
10 10 8 7 7 7 7 7 6 5 4 4 4 2 1 0 1 1 0 -2 -2 2 7 14 14 13 10 5 1 -1 -3 -3 -3 -3 -5 -9 -13 -14 -11 -4 0 1 -1 -4 -6 -6 -5 -2 1 2 2 2 2 1 1 -0 -1 -2 -2 -2 -1 -0 -0 -0 -0 -1 -1 -1 -1
6 6 6 6 7 7 7 6 4 3 2 0 -0 -0 0 2 3 3 2 2 4 7 10 12 10 7 4 0 -3 -5 -5 -3 -4 -6 -9 -11 -11 -7 -2 2 1 -1 -4 -7 -7 -5 -2 1 2 2 1 1 1 0 -0 -1 -1 -1 -1 -0 -0 -0 -0 -0 -1 -1 -1 -1 -1
6 5 5 5 6 5 5 4 3 2 1 -1 -1 1 4 6 5 4 5 7 6 6 4 2 -0 -2 -3 -1 -1 -2 -3 -4 -7 -9 -9 -7 -2 1 2 2 -2 -5 -7 -7 -4 -1 2 3 2 2 1 1 0 -0 -1 -1 -1 -0 -0 0 0 -0 -0 -1 -1 -1 -1 -1 -1
5 5 4 4 3 3 3 4 3 4 3 3 3 5 6 6 5 6 7 7 4 0 -3 -8 -10 -6 -0 5 2 -2 -5 -7 -6 -5 -3 -0 2 2 1 -3 -6 -7 -5 -2 0 2 2 2 2 1 1 1 0 0 0 0 0 0 0 -0 -0 -1 -1 -1 -1 -1 -1 -1 -1
5 4 3 3 3 3 3 4 5 6 6 6 6 5 5 4 7 8 5 -1 -4 -6 -7 -6 0 7 10 4 -3 -6 -7 -4 -1 1 2 2 0 -3 -6 -8 -6 -3 -0 2 2 2 2 2 1 1 1 1 1 1 1 1 1 0 -0 -1 -1 -1 -1 -1 -1 -1 -1 -1 -1
4 4 3 4 4 4 4 5 6 7 7 7 6 5 4 5 7 5 -1 -7 -6 -2 6 14 18 15 7 -1 -4 -4 -1 1 2 2 1 -1 -6 -8 -8 -5 -1 1 2 2 2 2 1 1 1 2 2 2 2 2 1 1 0 -0 -1 -1 -1 -1 -1 -0 -1 -1 -1 -1 -1
5 6 6 6 5 5 5 6 7 7 7 6 6 6 5 5 3 -1 -3 -3 6 15 21 22 13 6 2 2 2 2 3 3 1 -1 -5 -9 -9 -7 -3 1 2 2 2 1 1 1 1 2 2 2 2 2 2 1 1 0 -1 -1 -1 -1 -1 -0 -0 -1 -1 -1 -1 -1 -1
7 8 8 7 6 5 5 6 6 7 7 6 6 5 3 0 -2 -1 4 13 20 20 15 8 3 2 4 5 5 3 2 -1 -5 -8 -10 -10 -6 -1 2 3 2 1 1 1 1 1 2 2 2 2 2 2 1 1 -0 -1 -1 -1 -1 -1 -0 -0 -1 -1 -1 -1 -1 -1 -1
9 9 9 8 6 4 4 4 6 6 6 5 4 2 -1 -3 0 7 14 20 16 9 3 0 2 4 5 5 3 -1 -5 -9 -11 -10 -8 -4 0 2 3 2 1 1 1 1 1 2 2 2 2 2 2 1 1 -0 -1 -1 -1 -1 -1 -0 -0 -1 -1 -1 -1 -1 -1 -1 -2
8 9 10 9 6 4 2 3 3 4 3 3 1 -1 -1 4 11 15 15 11 4 0 -0 2 3 3 2 0 -4 -8 -11 -12 -9 -5 -1 2 2 2 1 1 1 1 1 2 2 2 2 2 2 2 1 1 -0 -1 -1 -1 -1 -1 -0 -0 -0 -1 -1 -1 -1 -1 -2 -2 -2
7 8 9 9 5 2 0 -0 -0 0 1 1 -1 1 7 16 18 16 10 2 -1 -0 1 1 1 -1 -4 -9 -12 -12 -10 -5 -1 2 3 3 2 1 1 1 1 1 2 2 2 2 2 2 2 1 1 -0 -1 -1 -1 -1 -1 -0 -0 -0 -1 -1 -2 -2 -2 -2 -2 -2 -2
9 9 9 7 4 1 -1 -2 -2 -1 -0 -0 0 6 12 16 13 9 4 -0 -1 -0 -0 -1 -4 -8 -12 -14 -11 -7 -2 3 4 4 3 2 1 1 1 1 2 2 2 2 2 2 2 2 1 1 0 -0 -1 -1 -1 -1 -0 -0 -0 -1 -1 -2 -2 -2 -2 -1 -1 -1 -2
13 13 11 10 7 6 5 5 5 6 6 6 9 11 11 8 4 1 -2 -3 -2 -2 -3 -6 -11 -13 -13 -9 -3 1 3 4 3 3 2 1 1 1 1 2 2 2 2 2 2 2 1 1 0 -0 -0 -1 -1 -1 -1 -1 -1 -1 -1 -2 -2 -2 -2 -2 -1 -1 -1 -1 -2
13 14 13 13 13 14 15 17 19 21 21 21 17 13 8 4 -1 -5 -6 -6 -4 -4 -7 -11 -13 -10 -6 0 4 4 3 2 1 1 1 1 1 1 1 2 2 2 2 2 1 1 1 0 -0 -1 -1 -1 -1 -1 -1 -1 -1 -2 -2 -3 -3 -3 -2 -2 -1 -1 -2 -2 -2
9 10 10 10 11 12 14 16 20 22 22 19 11 5 1 -2 -7 -9 -8 -6 -6 -8 -10 -11 -7 -3 2 5 5 4 3 1 0 0 0 1 1 1 1 1 1 1 1 1 1 0 -0 -1 -1 -1 -1 -1 -1 -1 -1 -2 -2 -3 -3 -3 -3 -2 -2 -2 -2 -3 -3 -2 -2
3 2 2 2 2 2 1 1 2 4 4 2 -1 -3 -5 -9 -10 -9 -8 -10 -12 -13 -10 -5 1 4 5 5 4 3 2 1 1 1 1 1 1 1 1 1 1 1 1 0 0 -0 -1 -1 -1 -1 -1 -1 -1 -2 -2 -3 -3 -3 -3 -3 -3 -3 -3 -3 -3 -3 -2 -2 -2
Height
2938 2943 2947 2952 2956 2960 2964 2968 2971 2975 2978 2981 2985 2989 2991 2994 2997 3001 3005 3009 3013 3017 3021 3025 3030 3034 3037 3040 3043 3045 3048 3051 3054 3057 3060 3062 3064 3067 3069 3072 3075 3077 3079 3080 3081 3082 3083 3085 3086 3088 3089 3090 3091 3092 3093 3094 3095 3097 3097 3098 3099 3099 3100 3100 3101 3102 3102 3103 3104
2939 2944 2949 2953 2957 2960 2964 2968 2971 2975 2978 2981 2985 2989 2991 2993 2997 3000 3004 3009 3013 3017 3021 3026 3030 3034 3037 3040 3043 3045 3048 3050 3054 3057 3060 3062 3064 3066 3069 3072 3074 3076 3077 3079 3080 3081 3083 3084 3086 3087 3088 3089 3090 3092 3093 3094 3095 3096 3097 3098 3098 3099 3099 3100 3100 3101 3102 3102 3103
2940 2945 2949 2953 2957 2960 2964 2968 2971 2974 2978 2981 2984 2987 2990 2993 2996 3001 3004 3009 3013 3017 3021 3025 3029 3033 3037 3040 3042 3045 3048 3050 3054 3057 3059 3061 3063 3066 3068 3071 3073 3075 3076 3078 3079 3080 3082 3084 3085 3087 3088 3089 3090 3091 3093 3094 3094 3095 3096 3097 3098 3098 3099 3099 3100 3101 3101 3102 3102
2942 2946 2949 2953 2957 2960 2964 2967 2971 2974 2978 2981 2983 2986 2989 2993 2997 3001 3004 3009 3013 3017 3021 3025 3029 3033 3036 3039 3042 3045 3047 3050 3053 3056 3059 3060 3063 3065 3068 3070 3072 3074 3075 3077 3078 3080 3082 3083 3085 3086 3088 3089 3090 3091 3092 3093 3094 3095 3096 3097 3097 3098 3099 3099 3100 3100 3101 3101 3101
2943 2946 2950 2954 2957 2961 2964 2968 2971 2975 2978 2980 2981 2984 2989 2993 2997 3001 3005 3009 3013 3017 3022 3026 3029 3033 3036 3039 3042 3045 3047 3050 3053 3056 3058 3060 3062 3064 3067 3069 3071 3073 3074 3076 3078 3079 3081 3083 3084 3086 3087 3089 3089 3091 3092 3093 3094 3095 3095 3096 3097 3098 3098 3099 3099 3099 3100 3100 3100
2944 2947 2951 2954 2958 2962 2965 2969 2972 2975 2978 2979 2981 2984 2989 2993 2997 3001 3005 3009 3013 3018 3022 3026 3029 3033 3036 3039 3042 3044 3047 3050 3053 3055 3058 3059 3061 3063 3066 3068 3070 3072 3074 3075 3077 3079 3081 3083 3084 3086 3087 3088 3089 3090 3092 3093 3094 3094 3095 3095 3096 3097 3097 3098 3098 3099 3099 3099 3099
2945 2948 2952 2955 2959 2963 2966 2969 2972 2975 2977 2979 2982 2986 2990 2994 2997 3001 3005 3009 3014 3018 3022 3026 3029 3033 3036 3039 3042 3044 3047 3050 3053 3055 3057 3059 3061 3063 3065 3067 3069 3071 3073 3075 3077 3079 3081 3083 3084 3085 3087 3088 3089 3090 3091 3092 3093 3094 3094 3095 3095 3096 3096 3097 3097 3098 3098 3099 3099
2946 2949 2953 2956 2960 2964 2967 2970 2972 2975 2977 2979 2983 2987 2991 2994 2998 3002 3006 3010 3014 3018 3022 3026 3030 3033 3036 3039 3042 3044 3047 3049 3052 3055 3057 3059 3060 3063 3064 3067 3069 3071 3073 3075 3077 3079 3081 3083 3084 3085 3087 3088 3089 3090 3091 3092 3092 3093 3093 3094 3094 3095 3095 3096 3097 3097 3098 3098 3098
2947 2950 2954 2958 2961 2964 2968 2970 2972 2974 2977 2980 2984 2988 2992 2996 2999 3003 3007 3011 3015 3019 3023 3027 3030 3034 3036 3039 3041 3044 3046 3049 3052 3054 3057 3059 3060 3062 3064 3066 3068 3070 3073 3075 3077 3079 3081 3083 3084 3085 3087 3088 3089 3089 3090 3091 3091 3092 3092 3093 3094 3094 3095 3095 3096 3097 3097 3097 3098
2948 2952 2955 2959 2962 2965 2968 2970 2973 2975 2978 2981 2985 2989 2993 2997 3000 3004 3008 3012 3016 3020 3023 3027 3030 3033 3035 3038 3040 3043 3045 3049 3051 3054 3056 3058 3060 3062 3064 3066 3068 3070 3073 3075 3077 3079 3082 3083 3084 3085 3086 3087 3088 3089 3089 3090 3090 3091 3091 3092 3093 3094 3094 3095 3096 3096 3096 3097 3097
2950 2953 2957 2959 2963 2966 2968 2969 2973 2976 2979 2983 2986 2990 2994 2998 3001 3005 3009 3013 3016 3020 3023 3026 3029 3032 3034 3037 3039 3042 3045 3048 3050 3053 3055 3057 3059 3061 3063 3066 3068 3070 3073 3075 3077 3079 3081 3083 3084 3085 3085 3086 3087 3087 3088 3089 3089 3090 3091 3092 3092 3093 3094 3094 3095 3095 3096 3096 3096
2952 2954 2957 2960 2965 2967 2969 2970 2973 2977 2980 2984 2988 2991 2995 2998 3002 3005 3009 3013 3017 3020 3023 3026 3029 3032 3034 3037 3039 3041 3044 3047 3050 3052 3054 3057 3059 3060 3063 3065 3068 3070 3073 3075 3077 3079 3081 3082 3083 3084 3084 3085 3086 3087 3087 3088 3089 3089 3090 3091 3092 3093 3094 3094 3094 3095 3095 3095 3096
2953 2955 2958 2961 2967 2969 2969 2971 2974 2978 2981 2985 2989 2993 2996 2999 3003 3006 3010 3014 3017 3021 3024 3027 3029 3032 3034 3036 3039 3041 3044 3047 3049 3052 3054 3057 3058 3060 3063 3065 3068 3070 3072 3075 3077 3079 3081 3082 3082 3083 3084 3084 3085 3086 3087 3087 3088 3089 3090 3091 3092 3092 3093 3093 3094 3094 3095 3095 3095
2953 2956 2959 2963 2968 2969 2970 2972 2976 2979 2983 2986 2990 2994 2997 3000 3004 3007 3011 3014 3018 3021 3024 3027 3030 3032 3034 3036 3039 3041 3044 3046 3049 3051 3054 3056 3058 3060 3062 3065 3067 3070 3072 3075 3077 3079 3080 3081 3082 3082 3083 3084 3084 3085 3086 3087 3088 3089 3089 3090 3091 3092 3092 3093 3093 3094 3094 3095 3095
2954 2957 2960 2965 2969 2970 2971 2974 2977 2981 2984 2988 2991 2994 2998 3001 3004 3008 3012 3015 3019 3022 3024 3028 3030 3033 3035 3037 3039 3041 3044 3046 3049 3051 3053 3055 3058 3060 3062 3065 3067 3070 3073 3075 3077 3078 3079 3080 3081 3081 3082 3083 3084 3085 3086 3087 3088 3089 3089 3090 3091 3091 3092 3092 3093 3094 3094 3094 3094
2955 2958 2963 2968 2969 2970 2972 2975 2979 2982 2985 2989 2992 2995 2998 3002 3005 3009 3013 3016 3019 3022 3025 3028 3030 3033 3035 3037 3039 3041 3044 3046 3048 3051 3053 3055 3058 3060 3062 3065 3068 3070 3073 3074 3076 3077 3078 3079 3080 3080 3081 3082 3084 3084 3085 3086 3087 3088 3089 3090 3090 3091 3091 3092 3093 3093 3094 3094 3094
2957 2960 2964 2970 2970 2971 2974 2977 2980 2983 2986 2990 2993 2996 2999 3003 3006 3010 3013 3016 3019 3023 3025 3028 3030 3032 3034 3037 3039 3041 3044 3046 3048 3050 3053 3055 3058 3060 3063 3066 3069 3071 3072 3074 3075 3076 3077 3078 3079 3080 3081 3082 3083 3084 3085 3086 3087 3088 3089 3089 3090 3090 3091 3092 3092 3093 3093 3093 3094
2958 2962 2966 2971 2971 2972 2975 2978 2981 2984 2988 2991 2994 2997 3000 3004 3007 3010 3014 3017 3020 3023 3025 3028 3030 3032 3034 3036 3039 3041 3044 3046 3048 3050 3053 3055 3058 3061 3064 3067 3069 3070 3071 3073 3074 3075 3076 3078 3079 3080 3081 3082 3083 3084 3085 3086 3087 3088 3089 3089 3089 3090 3091 3091 3092 3092 3093 3093 3093
2959 2964 2969 2971 2972 2974 2977 2980 2983 2986 2989 2993 2996 2999 3002 3005 3008 3011 3014 3018 3021 3024 3025 3028 3030 3032 3034 3037 3039 3041 3044 3046 3049 3050 3053 3056 3059 3062 3064 3067 3068 3069 3070 3072 3074 3075 3076 3077 3079 3080 3081 3082 3083 3084 3085 3086 3087 3087 3088 3089 3089 3090 3090 3091 3091 3092 3092 3092 3092
2960 2965 2970 2972 2974 2976 2979 2982 2985 2988 2991 2994 2998 3000 3004 3006 3009 3012 3015 3019 3022 3024 3026 3028 3030 3032 3035 3037 3039 3042 3044 3047 3049 3051 3053 3057 3060 3062 3064 3066 3067 3068 3070 3072 3073 3074 3076 3077 3079 3080 3081 3082 3083 3084 3085 3086 3086 3087 3088 3088 3089 3089 3090 3090 3091 3091 3092 3092 3092
2963 2968 2971 2973 2975 2978 2981 2984 2987 2990 2993 2996 2999 3002 3005 3008 3011 3014 3017 3020 3022 3025 3027 3029 3031 3033 3035 3038 3040 3042 3045 3047 3049 3051 3054 3057 3060 3062 3064 3065 3066 3068 3070 3071 3073 3074 3076 3077 3079 3080 3081 3082 3083 3084 3084 3085 3086 3086 3087 3088 3089 3089 3090 3090 3090 3091 3091 3091 3091
2967 2970 2972 2974 2977 2980 2983 2986 2989 2992 2995 2998 3001 3004 3007 3010 3013 3015 3018 3021 3023 3025 3027 3029 3032 3034 3036 3039 3041 3044 3046 3047 3049 3051 3055 3058 3060 3061 3063 3064 3066 3068 3070 3071 3073 3075 3076 3078 3079 3080 3081 3082 3083 3083 3084 3085 3085 3086 3087 3088 3088 3089 3089 3090 3090 3090 3090 3090 3090
2969 2971 2974 2977 2979 2982 2985 2988 2991 2994 2997 2999 3002 3005 3008 3011 3014 3017 3019 3021 3024 3025 3028 3030 3032 3035 3037 3040 3043 3045 3046 3047 3049 3052 3055 3058 3059 3060 3062 3064 3066 3068 3070 3072 3074 3075 3077 3078 3079 3080 3081 3082 3082 3083 3084 3084 3085 3086 3087 3087 3088 3089 3089 3089 3089 3089 3089 3089 3089
2971 2973 2976 2979 2981 2984 2987 2990 2993 2995 2998 3001 3004 3007 3009 3012 3015 3018 3020 3022 3024 3027 3029 3031 3033 3036 3039 3041 3043 3045 3046 3048 3050 3053 3055 3057 3059 3060 3062 3064 3067 3069 3071 3073 3074 3076 3077 3078 3079 3080 3081 3081 3082 3083 3084 3084 3085 3086 3086 3087 3088 3088 3088 3089 3089 3089 3089 3089 3089
2974 2975 2978 2981 2984 2986 2989 2992 2994 2997 3000 3003 3005 3008 3011 3014 3016 3019 3021 3023 3026 3028 3030 3032 3034 3037 3039 3041 3042 3044 3046 3049 3052 3054 3056 3057 3059 3060 3063 3065 3068 3070 3072 3073 3075 3076 3077 3079 3079 3080 3080 3081 3082 3083 3083 3084 3085 3085 3086 3087 3087 3088 3088 3088 3088 3088 3088 3088 3088
2976 2978 2980 2983 2985 2988 2991 2994 2996 2999 3002 3004 3007 3010 3012 3015 3017 3019 3022 3024 3027 3029 3031 3033 3035 3037 3039 3040 3042 3044 3047 3050 3052 3054 3056 3057 3059 3061 3064 3067 3069 3071 3072 3074 3075 3076 3077 3078 3079 3079 3080 3081 3081 3082 3083 3084 3084 3085 3086 3086 3087 3087 3087 3087 3087 3087 3087 3088 3088
2978 2981 2983 2985 2988 2990 2993 2995 2998 3001 3004 3006 3009 3011 3014 3016 3018 3020 3023 3025 3027 3029 3031 3033 3035 3037 3039 3041 3043 3046 3048 3050 3052 3054 3056 3058 3061 3063 3065 3068 3069 3071 3073 3074 3075 3076 3077 3078 3078 3079 3080 3080 3081 3082 3083 3084 3084 3085 3085 3086 3086 3086 3086 3086 3086 3087 3087 3087 3087
2981 2983 2985 2987 2990 2992 2994 2997 3000 3003 3005 3008 3010 3012 3014 3016 3019 3021 3023 3025 3028 3029 3032 3034 3036 3038 3040 3042 3044 3046 3048 3050 3052 3054 3057 3059 3062 3064 3066 3068 3070 3071 3073 3074 3075 3076 3077 3077 3078 3079 3079 3080 3081 3082 3083 3083 3084 3084 3085 3085 3086 3086 3086 3086 3086 3086 3086 3086 3086
2984 2985 2987 2989 2991 2994 2996 2999 3001 3004 3007 3009 3011 3014 3015 3017 3019 3022 3025 3027 3028 3030 3033 3035 3037 3039 3042 3044 3044 3046 3048 3051 3053 3056 3058 3060 3062 3064 3066 3068 3070 3071 3073 3074 3075 3076 3076 3077 3078 3079 3079 3080 3081 3082 3083 3083 3084 3084 3085 3085 3085 3085 3085 3085 3085 3085 3086 3086 3086
2986 2987 2989 2991 2993 2995 2998 3000 3003 3005 3008 3010 3013 3015 3017 3019 3021 3024 3026 3028 3029 3032 3034 3036 3039 3041 3043 3044 3045 3047 3049 3052 3055 3057 3059 3060 3063 3064 3067 3068 3070 3071 3073 3074 3074 3075 3076 3076 3077 3078 3079 3080 3081 3082 3082 3083 3084 3084 3084 3084 3084 3084 3084 3085 3085 3085 3085 3085 3085
2988 2989 2991 2993 2995 2997 3000 3002 3004 3007 3009 3011 3014 3016 3018 3021 3023 3025 3027 3029 3031 3033 3036 3038 3040 3042 3043 3045 3047 3049 3052 3054 3055 3057 3059 3061 3063 3065 3067 3068 3070 3071 3072 3073 3074 3074 3075 3076 3077 3078 3079 3080 3081 3081 3082 3083 3083 3083 3084 3084 3084 3084 3084 3084 3084 3084 3084 3084 3084
2990 2991 2993 2995 2997 2999 3001 3004 3006 3008 3010 3013 3015 3018 3020 3022 3024 3027 3029 3031 3033 3035 3038 3039 3041 3042 3044 3046 3049 3050 3052 3054 3055 3057 3059 3061 3063 3065 3067 3069 3070 3071 3071 3072 3073 3074 3075 3076 3077 3078 3079 3080 3081 3081 3082 3082 3083 3083 3083 3083 3083 3084 3084 3084 3084 3084 3084 3084 3084
2992 2993 2995 2996 2998 3000 3003 3005 3007 3009 3012 3014 3017 3019 3022 3024 3026 3028 3031 3033 3035 3037 3038 3039 3041 3043 3045 3047 3049 3050 3052 3054 3056 3058 3060 3062 3064 3066 3067 3069 3069 3070 3071 3072 3073 3074 3075 3076 3077 3078 3079 3080 3080 3081 3081 3082 3082 3082 3082 3083 3083 3083 3083 3083 3084 3084 3084 3084 3084
2993 2995 2996 2998 3000 3002 3004 3007 3009 3012 3014 3017 3019 3021 3024 3026 3028 3030 3032 3034 3035 3037 3039 3040 3042 3044 3046 3048 3049 3051 3053 3054 3056 3059 3061 3063 3065 3066 3067 3068 3069 3069 3070 3072 3073 3074 3075 3076 3077 3078 3079 3080 3080 3081 3081 3081 3082 3082 3082 3082 3082 3083 3083 3083 3083 3083 3083 3083 3083
2995 2996 2998 3000 3002 3004 3007 3009 3012 3014 3017 3019 3021 3023 3025 3028 3030 3032 3033 3035 3036 3038 3039 3041 3043 3044 3046 3048 3050 3052 3054 3055 3058 3060 3062 3064 3064 3065 3066 3067 3068 3069 3070 3072 3073 3074 3075 3077 3078 3078 3079 3079 3080 3080 3081 3081 3081 3081 3081 3082 3082 3082 3083 3083 3083 3083 3083 3083 3083
2997 2999 3000 3003 3005 3007 3009 3012 3014 3016 3019 3020 3023 3025 3027 3030 3031 3033 3034 3036 3037 3039 3040 3042 3044 3045 3047 3049 3050 3052 3055 3057 3059 3061 3062 3063 3064 3065 3066 3067 3068 3069 3071 3072 3074 3075 3076 3077 3078 3078 3079 3079 3079 3080 3080 3080 3080 3081 3081 3081 3082 3082 3082 3083 3083 3083 3083 3083 3082
2999 3001 3003 3005 3007 3009 3012 3014 3016 3018 3020 3023 3025 3027 3029 3030 3032 3033 3034 3036 3038 3040 3041 3043 3045 3046 3048 3049 3052 3054 3056 3059 3060 3061 3062 3063 3064 3065 3066 3067 3069 3070 3071 3073 3074 3075 3076 3077 3077 3078 3078 3079 3079 3079 3079 3080 3080 3080 3081 3081 3082 3082 3082 3082 3082 3082 3082 3082 3082
3001 3003 3005 3008 3010 3012 3014 3016 3018 3020 3023 3025 3027 3029 3029 3030 3032 3033 3035 3038 3039 3041 3043 3044 3045 3047 3049 3051 3054 3056 3057 3059 3060 3061 3062 3063 3064 3065 3066 3068 3069 3071 3072 3073 3074 3075 3076 3077 3077 3078 3078 3078 3079 3079 3079 3079 3080 3080 3081 3081 3081 3082 3082 3082 3082 3082 3082 3081 3081
3003 3005 3007 3009 3012 3014 3016 3019 3021 3023 3025 3027 3028 3029 3030 3031 3033 3034 3037 3039 3041 3043 3044 3045 3047 3049 3051 3053 3055 3056 3058 3059 3059 3061 3062 3063 3064 3066 3067 3069 3070 3072 3073 3074 3074 3075 3076 3076 3077 3077 3078 3078 3078 3079 3079 3079 3080 3080 3081 3081 3081 3081 3082 3082 3082 3081 3081 3080 3080
3004 3006 3009 3011 3013 3015 3017 3020 3022 3024 3025 3026 3028 3029 3030 3032 3034 3036 3038 3040 3042 3043 3045 3046 3049 3051 3053 3054 3056 3057 3058 3059 3060 3061 3062 3064 3065 3067 3068 3069 3071 3072 3073 3074 3074 3075 3075 3076 3077 3077 3077 3078 3078 3079 3079 3079 3080 3080 3080 3081 3081 3081 3081 3081 3081 3080 3080 3079 3079
3006 3008 3009 3011 3013 3014 3016 3018 3020 3022 3024 3026 3028 3030 3032 3034 3035 3037 3039 3040 3042 3044 3046 3048 3051 3053 3054 3055 3056 3057 3058 3059 3060 3062 3063 3065 3066 3068 3069 3070 3072 3073 3073 3074 3074 3075 3075 3076 3076 3077 3077 3078 3078 3079 3079 3079 3080 3080 3080 3080 3080 3080 3080 3080 3079 3079 3079 3079 3078